Terug naar catalogus

ECHOSTAR 5

ActiefCommunicatieGEO
NORAD 25913·PAYLOAD·🇺🇸 United States

Gelanceerd Sep 23, 1999 vanaf Cape Canaveral Space Force Station

Loading…

TLE

VersSource: Space-Track

Epoch: Sep 13, 2026, 21:05 UTC

1 25913U 99050A   26256.87907588 -.00000003  00000-0  00000+0 0  9999
2 25913  12.1188  35.3642 0001764 171.6907 186.6999  0.98744423 97741

Volg ECHOSTAR 5 in realtime met AllMySat

Download on the App Store